Pula, Croatia

1:39 PM CEST on August 27, 2016 (GMT +0200)
Pula

Weather History for LDPL - October, 2012

Change the Weather History Date:

Wednesday, October 31, 2012

  Actual Average Record
Temperature  
Mean Temperature 54 °F -  
Max Temperature 59 °F - - ()
Min Temperature 48 °F - - ()
Degree Days  
Heating Degree Days 12    
Growing Degree Days 4 (Base 50)    
Moisture  
Dew Point 49 °F    
Average Humidity 80    
Maximum Humidity 94    
Minimum Humidity 54    
Precipitation  
Precipitation 0.28 in - - ()
Sea Level Pressure  
Sea Level Pressure 29.73 in    
Wind  
Wind Speed 8 mph ()    
Max Wind Speed 22 mph    
Max Gust Speed 36 mph    
Visibility 6.8 miles    
Events Rain    
T = Trace of Precipitation, MM = Missing Value Source: Averaged Metar Reports

Daily Weather History Graph

Daily Weather History Graph

Search for Another Location

Airport or City:

Trip Planner

Search our weather history database for the weather conditions in past years. The results will help you decide how hot, cold, wet, or windy it might be!

Date:

Astronomy

Oct. 31, 2012 Rise Set
Actual Time 6:41 AM CET 4:53 PM CET
Civil Twilight 6:10 AM CET 5:24 PM CET
Nautical Twilight 5:36 AM CET 5:58 PM CET
Astronomical Twilight 5:02 AM CET 6:32 PM CET
Moon 5:47 PM CET (10/31) 8:11 AM CET (10/31)
Length of Visible Light 11h 13m
Length of Day
10h 12m
Full, 98% of the Moon is Illuminated
Oct 31
Full
Nov 7
Last Quarter
Nov 13
New
Nov 20
First Quarter
Nov 28
Full

Hourly Weather History & Observations

Time (CET) Temp. Dew Point Humidity Pressure Visibility Wind Dir Wind Speed Gust Speed Precip Events Conditions
12:00 AM 51.8 °F 41.0 °F 67% 29.89 in 6.2 mi SE 4.6 mph - N/A   Mostly Cloudy
12:30 AM 53.6 °F 41.0 °F 62% 29.86 in 6.2 mi Variable 4.6 mph - N/A   Scattered Clouds
1:00 AM 53 °F 41 °F 54% 29.88 in 25 mi SE 4.5 mph - -   Scattered Clouds
1:00 AM 53.6 °F 41.0 °F 62% 29.86 in 6.2 mi Variable 3.5 mph - N/A   Partly Cloudy
1:30 AM 53.6 °F 41.0 °F 62% 29.86 in 6.2 mi SE 4.6 mph - N/A   Partly Cloudy
2:00 AM 53.6 °F 42.8 °F 67% 29.86 in 6.2 mi SE 4.6 mph - N/A   Mostly Cloudy
2:30 AM 53.6 °F 42.8 °F 67% 29.86 in 6.2 mi SE 4.6 mph - N/A   Scattered Clouds
3:00 AM 53.6 °F 42.8 °F 67% 29.83 in 6.2 mi SE 4.6 mph - N/A   Mostly Cloudy
3:30 AM 53.6 °F 44.6 °F 72% 29.86 in 6.2 mi Variable 2.3 mph - N/A   Mostly Cloudy
4:00 AM 52 °F 46 °F 74% 29.87 in 9 mi Calm Calm - - Rain Light Rain
4:00 AM 51.8 °F 46.4 °F 82% 29.86 in 6.2 mi Variable 1.2 mph - N/A Rain Rain
4:30 AM 51.8 °F 48.2 °F 88% 29.83 in 6.2 mi SE 5.8 mph - N/A Rain Rain
5:00 AM 51 °F 48 °F 86% 29.86 in 9 mi SE 6.7 mph - - Rain Rain
5:00 AM 51.8 °F 48.2 °F 88% 29.83 in 6.2 mi SE 5.8 mph - N/A Rain Rain
5:30 AM 51.8 °F 48.2 °F 88% 29.83 in 6.2 mi Variable 2.3 mph - N/A Rain Rain
6:00 AM 51 °F 48 °F 87% 29.85 in 9 mi SE 2.2 mph - - Rain Light Rain
6:00 AM 50.0 °F 48.2 °F 94% 29.83 in 6.2 mi Variable 1.2 mph - N/A Rain Light Rain
6:30 AM 51.8 °F 48.2 °F 88% 29.83 in 6.2 mi SE 6.9 mph - N/A Rain Light Rain
7:00 AM 52 °F 48 °F 83% 29.85 in 19 mi ESE 6.7 mph - - Rain Light Rain
7:00 AM 51.8 °F 48.2 °F 88% 29.83 in 6.2 mi ESE 6.9 mph - N/A Rain Light Rain
7:30 AM 51.8 °F 48.2 °F 88% 29.83 in 6.2 mi SE 6.9 mph - N/A   Mostly Cloudy
8:00 AM 51.8 °F 48.2 °F 88% 29.83 in 6.2 mi ESE 5.8 mph - N/A Rain Light Rain
8:30 AM 51.8 °F 48.2 °F 88% 29.83 in 6.2 mi East 6.9 mph - N/A Rain Light Rain
9:00 AM 51.8 °F 48.2 °F 88% 29.83 in 6.2 mi ESE 5.8 mph - N/A Rain Light Rain
9:30 AM 53.6 °F 48.2 °F 82% 29.83 in 6.2 mi East 6.9 mph - N/A Rain Light Rain
10:00 AM 54 °F 49 °F 77% 29.84 in 12 mi ESE 6.7 mph - - Rain Light Rain
10:00 AM 53.6 °F 48.2 °F 82% 29.83 in 6.2 mi ESE 8.1 mph - N/A   Mostly Cloudy
10:30 AM 55.4 °F 48.2 °F 77% 29.83 in 6.2 mi ESE 9.2 mph - N/A   Mostly Cloudy
11:00 AM 57.2 °F 48.2 °F 72% 29.80 in 6.2 mi ESE 11.5 mph 24.2 mph N/A   Mostly Cloudy
11:30 AM 59.0 °F 48.2 °F 67% 29.80 in 6.2 mi ESE 10.4 mph - N/A   Scattered Clouds
12:00 PM 59.0 °F 48.2 °F 67% 29.77 in 6.2 mi East 11.5 mph - N/A   Scattered Clouds
12:30 PM 59.0 °F 46.4 °F 63% 29.77 in 6.2 mi ESE 11.5 mph - N/A   Scattered Clouds
1:00 PM 59 °F 49 °F 60% 29.76 in 16 mi ESE 11.2 mph - -   Partly Cloudy
1:00 PM 59.0 °F 48.2 °F 67% 29.74 in 6.2 mi ESE 11.5 mph - N/A   Scattered Clouds
1:30 PM 59.0 °F 51.8 °F 77% 29.74 in 6.2 mi East 15.0 mph - N/A   Scattered Clouds
2:00 PM 57.2 °F 50.0 °F 77% 29.71 in 6.2 mi East 13.8 mph - N/A   Scattered Clouds
2:30 PM 57.2 °F 50.0 °F 77% 29.71 in 6.2 mi East 13.8 mph - N/A   Scattered Clouds
3:00 PM 55.4 °F 48.2 °F 77% 29.71 in 6.2 mi East 13.8 mph - N/A Rain Light Rain
3:30 PM 55.4 °F 50.0 °F 82% 29.68 in 6.2 mi East 13.8 mph - N/A Rain Light Rain
4:00 PM 55 °F 51 °F 84% 29.69 in 6 mi East 13.4 mph - - Rain Light Rain
4:00 PM 55.4 °F 51.8 °F 88% 29.68 in 6.2 mi East 12.7 mph - N/A Rain Light Rain
4:30 PM 55.4 °F 51.8 °F 88% 29.65 in 6.2 mi East 16.1 mph - N/A Rain Light Rain
5:00 PM 55.4 °F 51.8 °F 88% 29.65 in 6.2 mi East 15.0 mph - N/A Rain Light Rain
5:30 PM 55.4 °F 51.8 °F 88% 29.62 in 6.2 mi East 13.8 mph - N/A Rain Light Rain
6:00 PM 55.4 °F 51.8 °F 88% 29.62 in 6.2 mi East 16.1 mph - N/A Rain Light Rain
6:30 PM 55.4 °F 51.8 °F 88% 29.59 in 6.2 mi East 18.4 mph - N/A Rain Rain
7:00 PM 56 °F 52 °F 83% 29.60 in 6 mi East 17.9 mph - - Rain Light Rain
7:00 PM 55.4 °F 51.8 °F 88% 29.59 in 6.2 mi East 17.3 mph - N/A Rain Light Rain
7:30 PM 55.4 °F 51.8 °F 88% 29.56 in 6.2 mi East 18.4 mph - N/A Rain Light Rain
8:00 PM 55.4 °F 51.8 °F 88% 29.53 in 6.2 mi East 17.3 mph - N/A Rain Light Rain
8:30 PM 55.4 °F 51.8 °F 88% 29.53 in 6.2 mi East 16.1 mph - N/A Rain Rain
9:00 PM 57.2 °F 53.6 °F 88% 29.50 in 6.2 mi East 16.1 mph 27.6 mph N/A Rain Rain
9:30 PM 57.2 °F 53.6 °F 88% 29.47 in 6.2 mi East 20.7 mph 33.4 mph N/A Rain Rain
10:00 PM 57 °F 54 °F 85% 29.47 in 6 mi East 22.4 mph - - Rain Light Rain
10:00 PM 57.2 °F 53.6 °F 88% 29.47 in 6.2 mi East 21.9 mph 35.7 mph N/A Rain Light Rain
10:30 PM 57.2 °F 55.4 °F 94% 29.42 in 6.2 mi East 21.9 mph 33.4 mph N/A Rain Light Rain
11:00 PM 59.0 °F 55.4 °F 88% 29.39 in 6.2 mi East 20.7 mph 33.4 mph N/A Rain Light Rain
11:30 PM 59.0 °F 55.4 °F 88% 29.36 in 6.2 mi East 17.3 mph 34.5 mph N/A Rain Light Rain